User: anonymous   Login
Location: Unspecified
(0.0000°N, 0.0000°E)
Time: 01:31:58
(UTC+00:00)
Language:

Kosmos-2172 - Orbit

View from above orbital plane
View from above orbital plane
View from above satellite
View from above satellite

Ground track
Ground track

The orbit data is extracted from the following two-line orbital elements,

1 21796U 91081A   24106.86940168  .00000118  00000-0  10565-3 0  9999
2 21796  82.9590  37.3491 0050145  36.6758  21.9060 13.75633117625757
Epoch (UTC): 15 April 2024 20:51:56
Eccentricity: 0.0050145
inclination: 82.9590°
perigee height: 942 km
apogee height: 1016 km
right ascension of ascending node: 37.3491°
argument of perigee: 36.6758°
revolutions per day: 13.75633117
mean anomaly at epoch: 21.9060°
orbit number at epoch: 62575

The dashed part of the orbit path shows where the satellite is in the earth's shadow,  

DLR